Location: Newark
(44.2003°N, 3.2583°E)
Time: 05:32:25
(UTC+00:00)

OTV 5 (USA 277) - Pass Details

Date: 30 October 2019
Orbit: 310 x 324 km, 54.5° (Epoch: 17 October)

Event Time Altitude Azimuth Distance (km) Brightness Sun altitude
Rises 19:04:59 0° 263° (W) 2,060 ? -26.5°
Reaches altitude 10° 19:07:11 10° 280° (W) 1,234 ? -26.9°
Enters shadow 19:07:33 12° 285° (WNW) 1,115 ? -26.9°
